CAPE
1082 917 631 326 306 240 88 9 7 0 0 0 15 1 0 0 0 0 295 516 820 796 959 1106 1169 1306 1600 1647 1679 1726 1869 2199 2218 2156 2232 2301 2210 2254 2305 2350 2294 2185 2220 2349 2322 1953 1827 1754 1880 2043 2231 2506 2407 2412 2796 2701 2346 2284 2298 2196 2273 2128 2006 1890 1767 1676 1650 1738 1918 2014 2288 2528 2714 2783 2738 2617 2503 2389 2355 2461 2672 2773 2866 2889 2915
1096 1082 837 578 302 270 208 34 5 5 0 0 0 26 30 6 0 0 47 292 562 759 526 470 532 860 1592 1637 1648 1738 1823 2073 2270 2227 2180 2300 2386 2332 2300 2372 2400 2284 2246 2309 2271 2244 2140 1957 1856 1880 1990 2612 2551 2331 2390 2663 2492 2383 2381 2316 2248 2145 2073 1986 1997 2132 2145 2209 2314 2336 2486 2652 2808 2862 2837 2759 2717 2697 2753 2916 3054 3080 3038 3041 3173
970 1154 1051 804 545 310 266 169 28 1 0 0 0 0 69 169 121 48 40 121 300 602 707 573 581 625 1152 1570 1607 1694 1846 1956 2176 2318 2242 2219 2304 2364 2354 2289 2356 2373 2322 2345 2289 2126 2250 2236 2144 2060 1739 1909 2052 2214 2240 2383 2477 2453 2445 2418 2400 2356 2306 2293 2343 2354 2385 2452 2482 2585 2698 2857 2908 2938 2907 2890 2844 2808 2947 3140 3239 3282 3329 3409 3533
1045 1072 1132 993 792 536 366 295 155 21 0 0 0 0 0 66 353 268 184 170 200 247 333 697 696 696 706 1265 1537 1636 1755 1869 2018 2256 2328 2283 2241 2258 2289 2249 2274 2345 2347 2296 2281 2125 2119 2320 2480 2522 2235 2011 1876 1940 2091 2296 2382 2403 2376 2426 2508 2525 2616 2626 2534 2573 2619 2619 2677 2713 2822 2907 3004 3010 2913 2795 2818 3035 3222 3310 3397 3466 3483 3519 3615
1157 1114 1071 998 906 761 548 430 317 164 22 0 0 0 0 0 42 328 325 283 283 206 130 327 759 805 738 807 1250 1518 1657 1745 1818 2033 2252 2290 2257 2210 2186 2180 2180 2241 2255 2194 2424 2146 2062 2114 2272 2442 2519 2238 2081 2024 2078 2148 2242 2295 2334 2385 2429 2514 2545 2601 2680 2672 2718 2755 2798 2825 2973 3128 3034 2760 2750 2847 2995 3111 3258 3473 3560 3494 3442 3392 3458
1459 1250 1186 1120 1063 944 720 546 442 308 146 12 0 0 0 0 0 4 199 255 282 302 183 24 150 767 900 807 880 1206 1489 1658 1732 1800 1990 2181 2223 2200 2167 2148 2124 2134 2216 2265 2246 2268 2163 2095 2080 2150 2274 2374 2271 2173 2216 2267 2298 2297 2245 2168 2104 2291 2512 2615 2708 2794 2862 2881 2912 3058 2820 2299 2442 2502 2633 2819 3051 3290 3500 3603 3474 3305 3182 3338 3595
1765 1601 1520 1454 1317 1131 1036 807 535 406 282 132 5 0 0 0 0 0 0 44 111 244 314 156 25 182 800 952 880 918 1107 1403 1657 1742 1760 1874 2092 2154 2146 2128 2108 2038 2025 2184 2320 2360 2359 2288 2231 2209 2212 2200 2214 2177 2117 2165 2242 2316 2369 2317 2097 2023 2165 2370 2546 2735 2831 2875 2786 2530 2508 2593 2700 2820 2933 3152 3406 3516 3530 3298 2951 2999 3650 3557 3514
1935 1874 1811 1752 1663 1592 1245 1084 896 670 387 245 104 8 0 0 0 0 0 0 0 26 188 300 126 44 325 857 1008 984 968 1011 1222 1498 1636 1659 1782 2008 2065 2073 2060 2015 1952 1923 2030 2194 2290 2368 2394 2404 2373 2326 2269 2150 2009 2014 2074 2201 2281 2308 2200 2075 2056 2131 2265 2429 2515 2574 2638 2690 2722 2810 2931 3082 3233 3333 3302 3036 2877 2927 3115 3234 3366 3313 3048
2040 2030 1994 1972 1975 1902 1821 1542 1159 1104 996 724 278 112 16 0 0 0 0 0 0 0 5 137 278 150 73 459 969 1150 1142 1057 1052 1176 1368 1514 1581 1782 1955 2014 2006 1996 1987 1956 1892 1926 2107 2316 2382 2395 2419 2798 2419 2398 2296 2037 1972 2086 2168 2142 2083 2059 2127 2238 2371 2456 2514 2567 2662 2748 2842 2943 3006 3017 2956 2856 2840 2923 3044 3143 3235 3366 3254 3098 2564
2143 2158 2141 2175 2162 2147 2103 1990 1783 1539 1317 1182 974 604 156 46 9 0 0 0 0 0 0 19 162 276 172 151 525 1045 1320 1348 1334 1203 1289 1417 1479 1630 1843 1955 1992 1980 1972 1990 2030 1996 1953 2003 2192 3048 3096 3073 2628 2522 2506 2396 2221 1940 1933 2004 2099 2177 2268 2386 2478 2498 2532 2592 2646 2698 2765 2792 2769 2792 2881 2960 3035 3058 3096 3196 3277 3304 3191 2656 2169
2285 2298 2332 2310 2332 2360 2351 2296 2143 1968 1784 1597 1460 1219 856 363 154 76 33 7 0 4 11 16 74 233 326 234 201 523 1108 1479 1535 1413 1363 1410 1442 1522 1696 1881 1964 2001 1966 1936 1939 2024 2088 2085 2037 2481 3501 3803 3235 2664 2502 2473 2400 2185 2029 2168 2317 2096 2218 2356 2402 2408 2491 2602 2657 2694 2770 2814 2878 2957 3070 3128 3118 3108 3179 3233 3246 3073 2649 2424 2439
2409 2488 2541 2535 2534 2495 2503 2473 2412 2298 2167 2035 1828 1582 1302 1000 649 251 179 143 110 56 45 34 57 168 336 389 322 327 541 1023 1525 1638 1546 1501 1501 1468 1516 1695 1879 1976 2011 1983 1930 1896 1937 2044 2131 2135 2128 2433 2680 2747 2644 2451 2312 2202 2108 2110 2127 2385 2278 2198 2255 2362 2504 2607 2677 2786 2883 2970 2966 2971 3045 3044 3087 3125 3128 3029 2828 2693 2658 2639 2692
2417 2542 2665 2730 2708 2634 2533 2511 2484 2431 2364 2234 2072 1866 1627 1410 1104 721 403 283 233 189 115 76 74 132 298 449 513 503 481 341 1000 1543 1711 1666 1601 1522 1438 1463 1640 1826 1953 2013 2021 1973 1904 1876 1923 2037 2116 2949 3306 2760 2554 2472 2392 2294 2197 2111 2028 2104 2321 2436 2324 2308 2320 2452 2637 2748 2838 2937 3008 3003 2978 2900 2847 2272 2332 2310 2356 2516 2584 2707 3116
2185 2346 2467 2563 2731 2786 2781 2704 2630 2544 2490 2404 2221 2080 1914 1722 1495 1134 720 514 359 305 215 148 102 109 228 381 609 732 734 699 715 994 1457 1714 1733 1686 1577 1469 1468 1586 1730 1880 1994 2050 2036 1970 1900 1883 1937 2047 2176 2351 2434 2451 2407 2373 2325 2210 2016 1865 1798 1912 2437 2610 2530 2626 2759 2787 2808 2965 2970 2664 2305 1997 1887 1778 1734 1994 2107 2251 2577 3238 3287
1979 2161 2301 2440 2606 2761 2851 2840 2798 2749 2675 2577 2454 2344 2194 1897 1648 1340 964 765 599 456 363 243 175 158 195 341 504 784 992 1031 953 917 1061 1415 1670 1745 1674 1549 1499 1543 1603 1661 1760 1876 1989 2039 2014 1963 1940 1961 1988 2028 2094 2156 2188 2167 2078 1884 1731 1621 1545 1548 1617 1979 2745 3110 3131 3013 2866 2571 2318 2156 2095 2097 2105 2289 2517 2652 2765 2996 3198 3150 3064
1882 2046 2178 2223 2330 2545 2663 2698 2684 2758 2774 2727 2689 2605 2477 2357 2113 1550 1224 961 824 708 586 504 361 262 201 346 481 676 984 1230 1304 1228 1164 1217 1433 1604 1648 1615 1589 1606 1647 1701 1732 1748 1790 1892 1997 2033 2017 1994 2004 2061 2103 2096 2083 2053 1950 1787 1652 1555 1484 1440 1443 1534 1689 1978 2275 2360 2303 2160 2064 2299 2626 2715 2982 3126 3165 3192 3116 3094 3117 3112 3099
1745 1874 1991 2079 2211 2334 2426 2468 2494 2484 2596 2721 2720 2708 2647 2568 2501 2268 1592 1226 978 875 801 710 684 504 368 426 577 697 853 1152 1475 1537 1475 1413 1392 1410 1508 1598 1663 1709 1684 1700 1772 1843 1881 1872 1872 1892 1934 1952 1960 2002 2090 2171 2174 2165 2037 1787 1665 1581 1526 1471 1452 1498 1573 1705 1828 1926 2024 2130 2387 2859 3135 3541 3715 3725 3709 3556 3469 3354 3320 3316 3240
2000 1894 1844 1858 1886 2043 2181 2264 2313 2353 2486 2614 2687 2687 2676 2689 2693 2538 2211 1611 1290 1058 912 801 866 820 688 541 700 882 948 1154 1443 1670 1706 1677 1598 1550 1561 1599 1671 1774 1806 1768 1711 1693 1746 2515 2476 1838 1810 1814 1845 1912 1982 2036 1971 1854 1750 1799 1834 1857 1884 1908 2012 2051 2020 1987 2019 2132 2231 2743 3201 3543 3893 3962 3746 3538 3379 3372 3466 3428 3493 3411 3038
2020 2064 2071 2031 2016 1992 1966 2046 2052 2114 2297 2466 2610 2662 2691 2705 2693 2565 2395 2070 1459 1202 1014 848 984 990 953 861 826 1044 1143 1274 1448 1718 1824 1810 1787 1755 1721 1752 1788 1845 1897 1905 1867 1818 1744 2098 2773 2509 1897 1788 1763 1757 1772 1770 1732 1632 1542 1671 1851 2000 2113 2271 2587 2919 3156 3245 3368 3473 3522 3658 3892 3999 3728 3493 3243 3174 3246 3318 3467 3542 3378 2998 2686
1496 1744 1918 2076 2072 2043 1997 1899 1917 2046 2293 2347 2434 2565 2638 2664 2624 2551 2427 2215 1851 1300 1077 908 1093 1128 1135 1106 1006 1038 1234 1391 1501 1735 1912 1938 1916 1874 1834 1849 1890 1931 1976 2003 2008 1989 1953 1876 1799 2041 2298 2066 1830 1729 1680 1641 1601 1508 1438 1508 1737 1934 2107 2457 2883 3097 3245 3408 3494 3484 3614 3653 3605 3101 2935 3081 3196 3235 3190 3215 3214 3126 2955 2765 2669
1786 1647 1564 1628 1722 1992 2014 1939 1826 2036 2254 2385 2450 2519 2569 2586 2567 2524 2414 2250 2002 1673 1196 1036 1164 1249 1266 1267 1223 1136 1179 1434 1544 1709 1926 2034 2031 2022 1922 1930 1947 1953 1997 2053 2081 2082 2063 2029 1979 2045 2258 2373 2312 2134 1923 1786 1722 1680 1718 1711 1665 1737 1863 2199 2590 4190 3330 3283 3360 3343 3292 3164 3228 3338 3438 3455 3384 3256 3179 3168 3099 2895 2770 2703 2389
2554 2146 2008 1587 1597 1654 1695 1769 1824 1951 2256 2380 2447 2473 2516 2547 2538 2508 2416 2265 2043 1836 1511 1157 1202 1310 1379 1396 1370 1340 1259 1324 1490 1698 1871 2031 2119 2139 2073 2014 2009 2028 2055 2087 2108 2118 2121 2073 2024 1982 2083 2374 2681 2892 2937 2789 2649 2512 2384 2289 2155 2039 1980 1963 2230 2585 3044 3129 3124 3157 3188 3259 3330 3385 3402 3358 3304 3243 3180 3052 2870 2692 2615 2396 2279
4046 3703 3407 2699 2006 1392 1605 1657 1656 1637 2240 2463 2460 2492 2541 2551 2528 2485 2420 2294 2102 1896 1772 1418 1282 1315 1397 1449 1484 1479 1440 1393 1314 1469 1798 2000 2132 2184 2194 2125 2124 2161 2136 2134 2125 2140 2144 2127 2073 2006 1929 1874 1962 2110 2216 2399 2748 2936 3063 3055 2854 2656 2548 2540 2553 2631 2804 2900 2967 3048 3110 3142 3174 3197 3237 3231 3162 3089 3009 2900 2792 2683 2578 2441 2282
3943 3983 3886 3721 3286 2601 2013 1516 1486 1522 2051 2473 2526 2515 2521 2537 2521 2487 2422 2313 2182 2017 1897 1634 1416 1381 1402 1454 1486 1527 1550 1529 1479 1419 1458 1867 2087 2182 2245 2284 2270 2250 2227 2191 2190 2190 2190 2182 2155 2135 2070 1981 1852 1721 1624 1530 1462 1770 2475 3029 3232 3289 3271 3207 3163 3156 3165 3250 3294 3323 3309 3270 3233 3237 3238 3169 3088 3024 2945 2870 2834 2682 2530 2338 2213
3684 3693 3642 3631 3543 3177 2618 2128 1664 1579 1977 2386 2552 2582 2603 2596 2561 2504 2447 2376 2275 2102 1990 1884 1612 1480 1460 1491 1518 1568 1633 1636 1599 1508 1435 1339 1609 1913 2131 2257 2328 2334 2296 2264 2251 2248 2256 2246 2218 2199 2180 2142 2097 2034 1952 1860 1790 1767 1703 1736 2027 2595 3057 3240 3276 3306 3370 3430 3495 3536 3501 3452 3398 3326 3244 3133 3009 2827 2782 2779 2685 2490 2182 2040 2146
3057 2943 3041 3230 3667 3552 2885 2412 1950 1713 2091 2418 2549 2568 2575 2569 2563 2538 2488 2416 2322 2204 2010 2067 1904 1629 1543 1594 1619 1690 1756 1806 1858 1796 1727 1602 1452 1387 1505 1702 1952 2140 2239 2258 2282 2286 2277 2254 2246 2235 2219 2218 2210 2220 2235 2286 2307 2344 2395 2370 2291 2169 2008 2294 2849 3177 3370 3491 3588 3605 3590 3538 3496 3390 3238 3078 2899 2767 2657 2585 2419 2152 1840 1832 1978
2425 2583 2882 3061 3476 3853 3347 2493 2105 1778 2294 2543 2673 2681 2623 2602 2572 2542 2494 2457 2363 2262 2130 2128 2092 1909 1656 1704 1765 1864 1942 1950 1978 2057 2034 1986 1883 1777 1693 1639 1652 1663 1900 2044 2120 2153 2178 2205 2214 2213 2227 2240 2280 2315 2362 2418 2487 2517 2602 2673 2705 2771 2780 2552 2531 2962 3242 3430 3533 3578 3569 3524 3420 3259 3036 2762 2660 2536 2248 2150 2117 2052 1965 2030 2154
2222 2490 2932 3165 3439 3859 3596 2616 2042 1976 2395 2667 2805 2823 2770 2709 2648 2600 2552 2476 2419 2326 2260 2254 2261 2126 1922 1691 1846 1998 2165 2184 2142 2162 2181 2210 2217 2205 2156 2136 2112 2060 1948 1875 1904 1946 2000 2050 2108 2164 2228 2289 2358 2415 2481 2564 2642 2755 2872 3084 3144 3172 3229 3137 3119 3110 3196 3347 3470 3528 3490 3385 3264 3030 2661 2401 2397 2385 2266 2205 2172 2198 2220 2318 2438
1976 2373 2936 3252 3420 3887 3721 2997 1962 2352 2672 2719 2832 2915 2926 2839 2771 2710 2626 2544 2466 2390 2336 2326 2325 2236 2079 1943 1843 2009 2182 2342 2394 2334 2339 2312 2316 2339 2377 2408 2412 2352 2283 2203 2114 1968 1873 1825 1930 2051 2179 2310 2418 2506 2599 2706 2915 3122 3335 3542 3676 3693 3571 3493 3529 3601 3561 3512 3454 3385 3389 3281 3027 2625 2332 2258 2208 2228 2166 2156 2253 2359 2515 2488 2482
1708 2198 2825 3263 3421 3976 3850 3132 2184 2226 2799 3012 2990 3055 3040 2984 2915 2855 2798 2689 2625 2539 2460 2466 2443 2356 2225 2116 1989 1844 2060 2272 2430 2569 2603 2582 2549 2500 2428 2423 2456 2459 2461 2491 2422 2396 2329 2308 2281 2227 2201 2215 2312 2415 2528 2642 2780 2903 3062 3299 3578 3735 3784 3758 3789 3814 3822 3767 3611 3570 3482 3183 2794 2513 2329 2128 2105 2142 2287 2399 2454 2426 2335 2247 2216
1399 2018 2739 3173 3476 4103 3995 3349 2530 2412 2646 2987 3199 3270 3254 3173 3131 3058 3077 2965 2960 2860 2663 2663 2613 2537 2437 2374 2189 2101 1928 2115 2300 2548 2729 2837 2832 2801 2771 2653 2535 2554 2566 2626 2650 2660 2664 2646 2632 2586 2496 2428 2373 2317 2329 2409 2463 2504 2644 2741 2919 2960 3364 3401 3576 3638 3693 3556 3466 3448 3203 2911 2808 2654 2392 2161 2153 2289 2452 2488 2405 2306 2161 2146 2144
1226 1837 2613 3162 3463 4088 4079 3651 2878 2674 2886 3054 3232 3303 3345 3365 3356 3304 3264 3278 3248 3195 3034 2822 2781 2737 2703 2646 2573 2461 2299 2117 2158 2348 2623 2865 3032 3072 3065 3022 2927 2801 2757 2692 2708 2720 2771 2802 2782 2764 2708 2615 2530 2455 2387 2359 2404 2416 2462 2515 2423 2426 2198 2276 2389 2460 2697 2947 3099 3029 2951 2869 2653 2413 2299 2324 2370 2450 2482 2330 2119 2022 2075 2105 2076
1226 1656 2448 3088 3334 3892 4083 3816 3072 2866 3195 3339 3363 3352 3347 3338 3356 3452 3482 3482 3527 3545 3494 3376 3294 3167 3067 2998 2963 2920 2821 2629 2285 2164 2311 2577 2896 3142 3230 3231 3168 3026 2890 2823 2796 2777 2780 2788 2787 2747 2704 2626 2548 2534 2478 2419 2618 2649 2477 2270 2365 1952 2048 2188 2377 2665 2756 2776 2678 2744 2719 2576 2418 2348 2395 2534 2632 2588 2334 2044 1917 1986 2079 2091 1954
1204 1517 2177 2934 3261 3652 3735 3771 3553 3000 3282 3391 3430 3479 3488 3472 3462 3480 3610 3670 3659 3711 3715 3674 3672 3628 3564 3539 3498 3447 3349 3182 2968 2633 2293 2288 2478 2881 3148 3264 3275 3261 3105 2988 2892 2892 2864 2801 2786 2763 2708 2720 2681 2660 2613 2729 2568 2398 2074 2083 2022 1969 1794 1888 1951 2462 2567 2521 2516 2564 2460 2289 2256 2335 2404 2424 2324 2068 1830 1829 1868 1960 2010 1902 1682
1081 1308 1794 2628 3001 3280 3591 3619 3415 3300 3297 3370 3430 3445 3493 3594 3648 3651 3719 3770 3783 3851 3907 3903 3914 3877 3833 3782 3783 3716 3600 3459 3274 3084 2870 2648 2438 2638 2863 3025 3103 3125 3130 3106 3053 3030 2997 2951 2910 2849 2957 2949 2987 2911 2819 2732 2451 2076 2078 2533 2481 2072 1771 1750 1772 1872 2176 2276 2258 2338 2338 2186 2132 2174 2154 2030 1968 1848 1834 1800 1920 1861 1663 1435 1239
971 1065 1350 2132 2714 3028 3223 3325 3389 3263 3343 3400 3483 3513 3557 3651 3790 3892 3870 3855 3860 3917 4037 4076 4022 4036 4027 3996 3929 3885 3832 3754 3645 3510 3305 3022 2755 2482 2551 2627 2712 2791 2904 2973 3042 3128 3154 3161 3110 3106 3132 3110 2922 2761 2692 2305 2272 2238 2024 2341 2561 2353 2106 2065 2150 2093 2066 2154 2147 2045 2070 2053 1913 1922 2046 2110 1912 1789 1671 1619 1498 1299 1176 1031 1036
905 925 983 1526 2295 2707 2741 3017 3213 3412 3417 3580 3889 3915 3796 3704 3757 3806 3910 3986 4000 4005 4084 4057 4027 4124 4142 4116 4084 4080 3994 3900 3786 3604 3338 3118 2908 2744 2598 2492 2475 2598 2686 2929 2858 2987 3154 3277 3310 3290 3091 2781 2702 2548 2383 2236 2136 2091 1896 2270 2504 2629 2611 2256 2283 2315 2266 2184 2027 1897 1866 1888 1963 2069 2080 1967 1789 1692 1546 1350 1153 1036 1004 998 1040
886 813 794 969 1670 2291 2515 2150 2238 3178 3600 3825 3721 3748 3743 3828 3844 3716 3678 3790 3969 4043 4001 3911 3918 4049 4169 4154 4060 4109 4056 3908 3736 3437 3217 3230 3213 3123 3020 2915 2808 2715 2813 2857 2921 2812 2972 3175 3329 3368 3090 2800 2652 2599 2389 2181 2215 1893 2258 2429 2486 2558 2682 2449 2036 2235 2382 2404 2340 2212 2132 2080 2074 2036 1853 1702 1634 1496 1328 1190 1137 1126 1209 1209 1168
838 716 677 786 1032 1569 1773 1170 1628 2327 3103 3270 3443 3517 3650 3501 3305 3275 3286 3389 3674 3832 3857 3782 3822 3997 4002 3939 3980 3956 3914 3856 3644 3370 3304 3421 3437 3404 3334 3270 3149 3085 2941 2910 3008 3150 3095 3044 3174 3296 3283 3091 2782 2455 2023 2271 2398 2409 2424 2494 2527 2564 2710 2841 2676 2204 2226 2270 2327 2349 2257 2092 1855 1747 1636 1511 1414 1266 1097 1126 1178 1202 1139 998 949
568 611 640 755 970 1108 1196 1530 1735 2087 2607 2761 3045 3258 3372 3276 3076 2828 2788 2936 3255 3561 3695 3730 3844 3923 3919 3864 3828 3865 3934 3832 3681 3514 3509 3551 3561 3503 3448 3388 3334 3228 2820 2618 2913 3226 3336 3308 3265 3282 3331 3357 2955 2874 2829 2627 2612 2602 2585 2613 2773 2828 2844 2332 2458 2390 2308 2280 2218 1956 1963 1600 1517 1355 1276 1227 1144 997 975 929 915 935 799 572 496
548 627 699 805 982 1179 1226 1328 1653 2052 2265 2280 2517 2821 3173 3203 2945 2909 2898 2789 3030 3324 3526 3621 3692 3654 3632 3079 3166 3435 3758 3721 3594 3652 3747 3791 3784 3790 3771 3713 3662 3627 3142 2847 3163 3367 3397 3375 3281 3249 3348 3346 3204 2919 2565 2472 2484 2564 2604 2640 2601 2604 2675 2233 1837 2062 2081 1980 1720 1466 1333 1431 1280 1080 1012 992 874 776 758 691 557 482 511 427 462
670 736 791 864 925 1082 1356 1519 1694 2096 2576 2642 2382 2335 2565 2690 2804 2909 2672 2670 2568 2767 3042 3153 3260 3178 3024 2652 3006 3274 3551 3637 3574 3799 3845 3893 3848 3809 3735 3670 3672 3634 3605 3589 2980 2799 3195 3367 3385 3336 3384 3324 3194 2889 2395 2271 2252 2203 2250 2194 2109 2059 2114 2042 1860 1620 1668 1661 1571 1300 1214 1098 905 809 726 612 506 473 339 389 328 411 372 430 409
613 710 818 942 966 946 1037 1201 1429 1721 2104 2516 2615 2498 2479 2597 2706 2728 2588 2631 2551 2600 2709 2769 2792 2728 2692 2702 3030 3266 3494 3728 3762 3674 3745 3756 3739 3739 3723 3724 3720 3676 3614 3594 3456 3270 3338 3337 3359 3190 3342 3260 3084 3050 2848 2395 2107 2042 2076 2098 2149 2246 2405 2150 1407 1681 1624 1330 1204 1051 922 862 733 630 608 496 250 148 271 363 369 314 332 272 313
597 685 738 784 884 896 838 911 1076 1313 1590 1889 2194 2491 2459 2490 2408 2444 2720 2807 2756 2696 2739 2785 2744 2442 2350 2688 3042 3213 3475 3741 3844 3636 3340 3576 3734 3706 3701 3677 3647 3643 3624 3703 3644 3499 3401 3311 3087 2790 2680 2699 2633 2547 2614 2500 2256 2162 2060 2070 2083 2119 1985 1807 1733 1368 1072 1005 877 805 810 796 739 533 345 0 0 271 317 282 319 251 178 133 0
525 588 706 792 770 734 714 880 968 1094 1295 1489 1706 2022 2226 2331 2343 2471 2725 2975 2874 2804 2766 2692 2521 2212 2283 2782 3033 3230 3500 3755 3679 3451 3543 3540 3588 3630 3606 3556 3583 3618 3597 3452 3234 3086 2920 2718 2631 2610 2644 2692 2429 2322 2446 2501 2440 2338 1988 1749 1711 1656 1566 1462 1259 1173 988 1057 778 541 543 497 59 0 0 53 242 294 335 142 148 0 223 246 208
301 444 633 734 671 658 676 866 970 1080 1222 1462 1594 1690 1909 2140 2252 2093 2301 2536 2579 2595 2482 2297 2166 2086 2472 2877 3144 3108 3086 3238 3477 3681 3697 3538 3336 3160 3076 3153 3196 3212 3241 3240 3279 3244 3112 2902 2871 2559 2469 2108 2083 2202 2304 2142 1962 1750 1530 1391 1342 1349 1315 1365 1000 813 634 697 616 400 0 0 0 61 147 251 335 273 199 239 165 41 75 74 0
238 3 4 468 563 565 706 859 1049 1147 1210 1332 1395 1493 1652 1784 1738 1898 1974 2092 2151 2110 2139 2116 2215 2418 2611 2854 2694 2458 2555 2818 2974 2768 2566 2640 2627 2646 2824 2996 3097 3333 3280 3089 2946 2702 2497 2338 2400 2041 1643 1719 1687 1716 1806 1838 1811 1653 1511 1411 1373 752 649 873 796 603 592 521 8 0 0 0 88 244 286 236 296 280 202 154 118 94 65 29 6
2 3 5 66 286 612 822 798 919 1103 1220 1225 1278 1312 1301 1340 1437 1564 1819 1925 1966 2005 1879 2142 2119 1966 2124 2389 2302 2256 2217 1826 1922 2153 2242 2422 2602 2506 2340 2336 2405 2402 2374 2297 2128 1957 1701 1329 1376 1490 1512 1515 1558 1492 1474 1522 1493 1454 1489 1334 1289 1057 1023 851 683 525 287 266 120 185 150 225 249 172 170 246 190 148 166 162 102 29 30 2 0
3 12 11 4 7 304 540 839 864 1032 1141 1187 1155 1260 1184 1273 1418 1561 1630 1340 1242 1483 1667 1412 1111 1498 1531 1483 1760 1594 1584 1463 1183 1316 1130 1042 1081 1214 1256 1276 1328 1388 1382 1352 1364 1393 1358 1413 1452 1469 1472 1411 1432 1415 1393 1408 1433 1316 1322 1269 1162 870 682 564 559 392 325 287 273 235 186 122 98 87 27 7 0 0 0 9 10 13 9 7 1
2 9 16 14 52 9 6 166 537 847 1025 1149 1237 1234 1226 1174 1220 1301 1303 1250 1242 1239 1198 944 634 706 738 787 874 1018 980 868 808 927 1005 1102 1158 1161 1173 1188 1199 1233 1247 1238 1213 1219 1248 1350 1323 1289 1295 1281 1305 1326 1351 1534 1509 1334 1305 1218 873 653 714 668 501 376 283 204 161 127 140 64 26 51 44 49 60 47 31 15 7 2 2 4 2
3 2 3 30 22 10 3 1 0 340 656 788 946 910 860 834 833 894 840 685 655 606 572 559 606 558 515 568 608 686 815 822 862 956 1037 1089 1094 1065 1040 1056 1094 1055 1015 1010 977 992 1052 1145 1229 1324 1141 1052 989 936 916 885 320 302 468 777 635 453 299 230 1 120 65 24 18 9 6 6 4 4 2 4 5 3 0 0 1 0 0 0 0
Wind_Speed
10 11 13 12 11 9 nan nan nan nan nan nan nan nan nan nan nan nan 9 8 8 7 7 7 6 3 1 1 2 3 4 6 7 8 9 10 11 11 11 10 11 12 11 12 10 9 9 8 8 8 7 7 8 5 5 5 6 8 8 6 6 6 4 4 6 11 10 5 6 6 6 5 5 2 3 5 8 10 11 12 9 8 12 12 8
8 10 12 13 11 11 11 nan nan nan nan nan nan nan nan nan nan nan nan 7 8 6 6 6 6 4 2 1 2 2 3 4 5 6 8 9 10 10 10 10 10 10 9 11 11 10 8 8 8 7 5 5 4 4 3 3 3 5 8 6 6 6 5 2 5 5 10 7 6 5 5 1 2 1 4 5 9 9 9 8 6 8 11 11 7
7 9 10 12 12 13 13 13 nan nan nan nan nan nan nan 6 7 nan nan 7 7 7 6 6 5 5 3 2 3 2 2 2 3 4 6 7 8 9 9 9 9 9 10 11 11 9 8 7 8 6 3 4 4 4 2 1 1 2 5 5 6 7 5 4 3 4 6 8 4 5 4 3 1 4 2 4 6 7 8 6 4 5 10 9 5
8 8 7 8 11 14 14 14 12 nan nan nan nan nan nan nan 7 6 6 7 6 6 6 6 6 5 4 3 4 3 2 1 1 3 4 5 7 7 7 7 8 8 9 9 9 9 9 8 8 6 4 3 3 2 2 1 0 1 1 2 3 6 5 4 3 3 3 4 5 2 3 2 2 1 1 2 5 6 5 4 2 5 9 7 4
6 7 7 7 10 11 11 13 12 10 nan nan nan nan nan nan nan 5 6 6 6 7 7 7 6 6 5 4 4 3 3 2 1 1 2 3 5 5 5 6 6 7 7 7 8 8 8 9 9 6 4 4 3 2 2 0 1 1 0 0 0 2 4 3 4 2 3 3 4 4 4 4 3 2 1 2 3 3 3 2 3 6 10 7 3
4 5 7 8 9 7 9 11 10 10 10 nan nan nan nan nan nan nan 6 5 6 6 6 nan 7 6 5 5 4 3 3 3 2 1 2 1 2 3 4 5 5 5 6 6 6 6 7 8 8 7 6 6 5 3 3 2 1 1 2 2 1 2 1 2 3 2 2 2 3 6 7 4 6 3 2 2 2 5 5 1 3 6 9 5 1
4 5 6 6 8 7 8 9 10 11 12 13 nan nan nan nan nan nan nan nan 5 6 5 6 nan 8 6 6 5 5 4 4 3 2 1 1 1 1 2 3 4 3 3 4 4 5 6 6 7 7 8 7 6 5 4 3 3 2 1 1 3 5 3 2 2 2 3 3 5 4 4 5 5 4 5 6 4 1 2 2 1 6 9 9 3
4 4 5 5 6 7 8 10 12 13 15 16 16 nan nan nan nan nan nan nan nan nan 5 5 7 nan 7 6 6 6 5 4 4 4 3 3 3 2 2 1 2 2 2 2 2 3 5 5 6 7 8 8 8 6 6 5 4 3 2 3 4 5 4 4 4 4 4 5 5 5 6 6 7 5 7 9 7 5 3 5 3 2 7 7 8
4 2 2 3 4 7 11 13 14 15 16 17 17 16 nan nan nan nan nan nan nan nan nan 6 7 7 nan 7 6 6 5 5 5 5 4 4 4 4 4 3 2 1 1 1 0 1 2 3 4 6 8 10 12 10 8 8 7 5 3 4 4 5 6 6 5 5 5 7 7 8 7 7 5 6 7 7 5 2 3 6 5 6 8 8 6
6 3 1 2 5 9 12 14 15 16 16 16 16 16 17 nan nan nan nan nan nan nan nan nan 7 7 7 7 6 6 5 6 5 7 6 6 6 5 6 5 4 3 2 2 2 2 2 2 3 7 10 11 12 13 13 12 11 8 6 7 5 5 6 7 7 7 7 8 7 8 7 5 5 7 8 9 10 7 6 7 7 6 9 10 13
10 6 3 5 7 9 12 13 15 14 14 15 16 16 17 18 18 nan nan nan nan nan nan nan nan 9 8 7 7 6 6 7 6 7 7 7 7 7 7 7 6 5 4 4 4 3 3 2 2 3 5 7 9 13 14 14 13 12 11 9 8 8 6 7 8 10 10 10 11 11 8 6 5 9 11 10 11 8 6 9 9 10 13 13 12
13 10 9 10 9 6 7 9 12 13 14 14 14 16 18 18 19 18 18 16 16 nan nan nan nan 11 11 9 8 7 7 5 7 8 8 7 7 7 9 9 8 7 6 6 5 5 5 4 4 5 5 6 7 9 11 13 14 13 11 10 9 9 8 8 8 10 13 12 12 11 11 7 6 12 12 13 12 13 12 11 10 11 13 15 16
17 15 14 11 4 3 6 7 9 12 13 14 15 17 17 17 17 17 16 17 18 16 14 nan nan 13 12 11 10 8 8 6 8 9 8 8 7 6 9 10 10 9 8 8 7 6 7 7 6 7 7 7 7 8 10 10 11 13 12 9 6 5 4 5 7 8 12 14 14 14 13 11 10 12 16 15 16 16 15 12 11 13 16 16 16
18 15 12 8 4 4 5 6 8 11 15 16 17 16 15 14 14 16 18 19 18 16 15 13 13 14 13 13 13 12 10 8 10 10 9 9 8 8 9 10 11 10 9 9 9 8 9 9 8 8 9 9 9 9 10 9 9 10 10 9 8 5 5 6 4 3 10 12 16 16 16 18 12 16 16 17 16 14 15 12 13 13 16 17 19
19 15 11 7 7 9 9 5 5 10 15 17 16 14 13 14 14 16 17 16 16 15 15 14 14 14 14 15 16 14 13 10 12 11 11 11 9 9 8 11 13 12 11 11 10 10 10 10 10 9 9 10 11 11 11 10 10 10 10 10 10 8 8 9 12 12 11 11 14 17 18 20 17 17 17 19 19 18 17 15 15 17 19 20 20
19 15 10 6 5 7 8 6 5 8 13 16 14 12 12 13 14 16 16 16 16 17 17 15 13 13 14 15 15 13 13 13 15 14 13 12 12 12 10 10 12 12 12 12 12 13 12 11 12 11 11 11 10 10 11 12 12 11 12 11 10 10 9 9 11 14 13 11 10 13 17 18 18 18 23 23 22 23 23 23 23 22 22 21 20
18 14 10 8 7 7 9 9 6 6 10 13 13 12 13 15 17 19 17 15 15 15 14 14 15 14 14 14 14 13 14 15 16 16 15 15 16 14 12 11 11 11 11 12 13 13 14 14 13 13 12 13 12 13 11 12 12 13 13 13 12 12 9 12 14 14 12 11 9 8 10 13 16 20 22 19 22 24 27 24 20 24 23 20 21
22 15 12 12 13 13 14 13 10 9 10 11 13 16 17 19 18 19 17 16 14 14 16 17 17 16 14 12 13 14 14 16 17 16 16 17 20 17 15 13 11 10 10 11 13 15 15 12 13 14 13 13 13 15 13 13 11 12 13 13 13 11 10 13 18 18 16 13 10 9 12 15 17 19 22 21 23 26 26 20 23 28 24 24 22
21 18 18 19 20 19 19 17 14 11 9 10 15 17 18 18 20 20 19 18 16 18 18 17 16 16 13 12 10 11 13 16 17 16 16 19 20 18 18 16 12 11 11 11 12 15 16 15 11 11 13 12 12 14 13 13 10 11 11 13 12 12 11 17 19 19 22 21 18 18 18 16 18 20 20 19 21 21 22 21 25 27 24 26 28
21 20 20 20 20 21 22 20 16 13 10 12 16 17 21 22 21 20 20 20 20 19 18 17 14 14 15 13 13 12 12 15 18 15 16 18 19 19 19 17 13 11 12 12 13 16 17 18 16 11 10 10 13 14 12 12 11 11 13 13 13 12 15 20 19 20 21 21 21 22 21 23 23 22 21 20 19 19 20 20 22 25 26 28 29
24 23 22 21 19 20 23 22 17 13 14 17 18 20 21 20 20 20 20 21 21 20 18 17 16 15 16 16 15 14 13 13 18 17 16 17 17 17 17 15 14 14 14 14 14 15 18 19 20 17 13 12 13 13 11 12 12 11 12 13 15 14 21 23 19 21 23 24 25 26 27 27 23 22 21 20 19 19 19 19 22 25 28 29 29
27 25 24 23 20 19 20 23 21 19 20 21 21 19 19 18 19 18 20 21 19 18 19 19 18 17 18 17 16 15 14 12 18 18 18 17 17 17 14 13 14 16 15 14 14 15 17 19 20 18 16 15 15 15 13 13 12 12 9 10 12 15 19 21 23 24 25 29 30 30 29 28 25 23 22 21 21 21 21 22 25 27 28 30 33
28 26 23 21 18 16 18 19 22 23 24 23 21 20 21 20 19 20 19 19 18 17 17 18 18 18 18 18 17 15 16 17 16 20 18 18 18 17 13 11 13 16 17 14 13 14 18 19 19 15 15 15 16 15 15 14 16 13 7 9 13 15 19 21 23 26 27 29 31 30 28 27 26 23 23 23 23 24 24 26 28 30 30 32 34
32 28 25 22 17 15 17 19 20 23 24 24 23 22 23 22 22 21 20 19 19 18 18 17 17 17 16 16 17 16 17 18 18 18 20 18 18 18 15 11 13 18 17 15 14 16 18 19 19 15 16 16 17 17 15 16 16 11 11 12 15 20 22 22 23 26 28 29 29 28 26 26 26 25 25 26 27 27 28 31 32 33 35 35 36
38 34 30 25 20 18 18 20 21 23 25 25 24 23 23 25 24 23 22 21 20 19 18 18 16 15 16 15 14 16 18 18 20 19 18 19 17 17 16 15 13 16 17 15 16 18 16 14 15 16 17 19 19 18 18 15 12 12 13 16 19 23 23 24 25 28 28 27 26 25 24 24 25 27 28 30 31 32 34 35 35 35 36 38 40
42 39 36 30 24 20 20 20 21 22 23 25 23 23 24 26 25 26 25 22 20 20 20 19 17 16 14 14 14 16 19 20 19 21 21 21 19 16 16 15 14 16 16 14 12 11 12 15 15 17 21 23 25 25 23 20 17 15 15 21 26 24 26 27 29 28 25 25 24 23 23 25 26 27 30 33 36 36 37 38 38 37 39 43 45
42 42 39 36 29 23 20 21 21 22 22 24 25 26 28 28 27 27 26 23 21 21 21 19 17 15 12 12 15 19 20 20 19 21 25 25 24 22 21 19 16 17 19 17 16 18 19 21 25 25 26 24 22 22 22 22 23 24 27 29 28 27 27 28 28 26 25 24 24 23 26 27 29 32 32 34 36 35 37 40 40 40 42 42 44
44 44 43 41 35 28 23 17 17 22 22 23 26 27 29 29 28 27 26 24 23 22 22 20 17 15 14 16 20 21 21 20 19 19 23 25 23 27 28 27 26 26 22 20 20 21 27 32 33 31 29 28 26 27 27 27 26 28 30 31 30 28 26 24 25 26 25 25 26 29 29 29 28 29 33 34 35 35 37 39 40 40 41 42 42
46 45 44 43 39 33 28 26 24 24 24 24 24 25 27 29 28 27 25 27 25 22 21 20 18 17 19 21 21 21 20 18 17 20 22 24 26 29 30 28 27 27 21 19 24 28 31 30 28 28 28 26 26 26 28 29 29 31 32 33 32 31 30 29 26 26 26 28 26 25 26 28 30 33 34 34 33 34 33 36 37 40 38 39 40
47 47 47 46 44 38 34 31 29 28 27 27 27 34 39 34 27 27 27 23 21 19 22 22 21 23 23 23 22 20 17 15 19 25 23 27 28 28 26 27 27 26 22 23 27 25 24 23 24 24 25 26 26 27 28 31 32 33 32 34 34 32 30 27 25 25 27 25 25 27 28 29 30 31 31 30 31 31 33 36 37 38 39 38 39
48 49 49 49 47 42 39 37 34 32 31 31 32 33 33 38 43 38 31 27 25 23 22 20 23 24 25 23 22 17 14 18 26 28 27 28 29 27 25 27 29 25 26 36 29 23 23 23 22 23 23 24 23 25 29 32 33 33 34 33 33 34 36 32 25 23 22 26 28 27 26 26 28 29 29 29 31 32 33 34 37 37 38 39 41
49 49 51 52 50 44 41 40 39 38 38 39 40 36 33 32 33 41 44 36 29 25 23 23 25 26 22 21 24 25 19 19 25 29 30 30 29 28 27 28 28 27 28 31 25 23 22 21 21 21 23 23 23 26 30 32 33 34 34 36 38 39 30 20 22 27 29 31 30 28 27 28 29 28 29 31 32 33 35 35 37 38 39 39 40
46 48 49 51 54 47 43 44 45 45 47 46 42 36 33 30 28 29 37 46 43 34 27 26 25 24 22 22 22 22 23 24 25 30 31 32 32 31 29 29 29 34 40 31 22 22 21 20 20 22 23 24 26 28 30 33 34 36 39 37 38 32 22 21 29 30 31 33 35 31 33 36 36 33 30 32 34 35 36 36 36 38 38 38 35
42 45 46 49 52 53 48 46 47 47 45 43 39 35 32 31 29 31 35 35 38 41 43 40 35 30 30 28 25 22 22 25 28 30 32 32 33 31 34 39 43 37 30 24 22 18 19 21 22 23 24 25 26 30 32 36 43 44 38 33 36 31 20 26 32 31 33 35 36 35 36 39 39 36 31 31 34 36 37 36 38 38 36 35 35
42 44 46 47 50 50 50 49 47 47 47 46 43 39 36 35 34 34 33 32 32 32 31 34 40 41 35 35 35 30 26 26 29 30 32 31 33 44 52 45 40 33 26 22 21 21 22 22 22 21 24 26 28 34 42 47 44 39 32 30 34 35 30 33 33 35 37 38 39 38 34 33 33 34 35 36 38 38 38 38 38 39 38 35 35
43 43 43 43 44 48 53 55 58 58 55 51 45 40 38 38 38 37 37 38 38 35 35 38 41 43 46 47 45 40 34 29 28 29 29 34 44 49 41 35 33 30 25 23 23 21 21 21 22 24 29 36 45 50 46 39 36 39 30 27 30 33 36 36 36 37 39 40 40 41 41 37 35 36 38 39 38 38 38 39 40 40 40 39 38
47 45 45 44 46 53 57 58 57 59 60 61 60 55 51 48 46 46 44 43 43 42 41 42 45 47 48 46 47 48 47 43 41 38 36 38 39 38 33 34 31 31 27 26 31 35 34 27 26 29 39 48 43 36 34 32 37 39 34 31 32 35 36 39 41 41 41 41 41 43 44 43 41 40 40 38 37 37 38 39 41 41 40 40 42
50 48 46 45 45 51 57 58 52 52 51 51 51 50 50 51 50 47 47 49 48 47 48 50 46 43 41 43 45 44 48 51 54 52 48 46 40 33 32 32 32 33 32 38 42 37 26 23 27 32 44 44 34 31 36 38 38 39 39 38 39 40 43 44 46 46 45 44 44 44 45 45 43 42 41 41 41 41 41 41 42 41 39 40 42
54 51 48 46 46 50 53 52 47 44 43 44 43 45 45 45 46 45 45 49 53 57 55 50 47 44 45 50 53 51 52 48 43 40 41 39 38 35 34 34 35 38 39 34 32 30 32 34 37 41 44 44 40 38 37 41 41 42 42 44 46 47 48 47 47 46 46 45 45 45 45 45 43 44 44 44 44 43 43 42 41 42 42 42 41
56 54 51 51 50 49 47 43 46 49 46 39 39 44 47 49 47 46 46 48 52 56 58 54 47 46 47 50 56 55 54 51 48 45 43 42 42 42 41 40 40 42 43 33 34 37 39 39 41 43 44 45 44 43 44 45 44 45 47 48 51 53 53 51 49 49 49 48 48 47 46 45 44 44 44 45 46 45 44 43 43 44 45 45 44
57 55 53 52 52 50 48 44 44 40 38 35 35 37 41 45 48 49 51 51 54 58 61 61 58 54 49 51 61 62 59 53 50 49 46 44 44 44 44 43 43 44 43 42 41 39 38 39 41 44 45 45 45 48 48 50 50 51 53 53 54 54 55 55 54 53 50 49 49 50 47 47 46 47 47 46 47 47 46 47 47 48 47 47 48
58 57 55 55 56 55 51 45 42 41 43 41 37 36 40 45 49 53 54 55 57 59 61 63 60 57 53 60 69 72 64 58 54 49 46 44 45 46 45 45 45 45 45 45 45 43 41 41 42 44 45 47 47 47 48 51 52 53 54 55 56 57 56 56 56 55 54 53 52 51 50 50 49 51 51 50 50 50 49 50 50 51 51 51 52
61 58 57 56 59 61 61 57 53 49 48 45 43 45 47 50 52 55 56 55 55 57 58 59 58 58 61 66 74 75 67 62 57 51 47 46 46 46 45 45 44 45 46 46 47 47 46 47 48 49 49 49 49 49 51 52 52 55 56 57 57 57 57 57 57 56 55 55 54 53 53 52 52 52 52 51 51 51 51 52 52 53 54 55 56
61 62 62 62 61 63 63 60 59 60 60 59 55 52 52 53 53 53 52 52 54 55 57 58 58 61 65 70 73 71 68 64 57 50 48 47 46 45 44 44 44 46 47 48 49 49 50 51 52 52 53 54 53 55 56 56 56 57 55 55 56 55 55 57 58 57 56 56 56 54 53 53 52 52 52 nan nan 53 53 53 54 55 57 57 nan
63 63 65 66 66 66 66 64 62 63 65 63 58 55 56 55 54 53 54 53 55 57 59 62 63 65 69 71 72 71 67 62 57 53 51 49 48 47 46 46 47 48 49 50 51 52 53 54 55 56 58 56 57 57 57 57 57 57 54 52 53 57 57 56 54 51 51 55 55 54 53 53 nan nan nan nan 53 55 55 55 56 nan 58 58 59
62 60 63 65 66 65 65 66 66 64 64 63 60 58 58 56 55 56 57 57 58 61 65 66 66 70 73 73 71 70 66 61 58 56 54 53 51 49 47 47 47 49 50 50 52 54 55 56 57 57 58 58 58 58 56 56 56 56 57 57 57 55 53 53 51 52 53 54 55 55 nan nan nan nan 56 55 56 57 57 57 58 nan nan nan nan
63 nan nan 60 61 62 65 67 68 66 66 65 61 59 59 58 58 60 63 64 62 63 68 68 69 73 75 74 73 72 68 63 59 57 56 54 53 50 48 48 49 50 52 53 55 56 58 57 56 57 58 57 58 58 57 57 58 58 57 57 57 56 51 48 49 51 52 52 nan nan nan nan nan 56 57 57 58 58 59 59 59 nan nan nan nan
nan nan nan nan 53 55 59 65 69 68 65 65 61 58 58 56 53 54 58 62 63 62 64 66 67 69 72 72 71 70 65 60 57 56 54 53 52 49 49 50 51 53 54 57 57 57 57 57 57 59 60 61 61 61 60 60 59 58 55 54 55 55 52 50 50 50 50 52 54 56 57 58 58 58 58 59 60 60 61 60 60 nan nan nan nan
nan nan nan nan nan 54 54 58 64 68 67 62 59 57 57 57 53 49 49 53 56 57 58 61 62 65 67 68 66 63 60 56 55 54 53 52 51 51 52 54 56 57 58 59 58 59 59 59 60 60 60 60 61 61 60 58 55 54 55 55 55 59 62 60 54 53 55 55 57 59 60 61 nan nan nan nan nan nan nan nan nan nan nan nan nan
nan nan nan nan nan nan nan 50 52 58 65 65 62 58 57 57 55 52 49 49 51 54 58 60 60 61 64 65 63 60 58 57 55 54 53 53 53 53 55 57 58 58 59 59 59 60 60 61 63 63 63 62 62 61 61 61 57 55 49 57 62 64 64 65 63 61 58 57 60 62 63 nan nan nan nan nan nan nan nan nan nan nan nan nan nan
nan nan nan nan nan nan nan nan nan 42 47 54 58 61 63 61 57 54 50 47 45 46 52 58 59 57 58 61 62 60 58 57 57 56 56 56 56 57 58 59 59 60 61 62 62 62 62 61 62 63 63 65 65 65 65 64 61 57 59 65 65 65 66 64 nan 63 nan nan nan nan nan nan nan nan nan nan nan nan nan nan nan nan nan nan nan
Wind_Direction
255 237 228 220 220 229 nan nan nan nan nan nan nan nan nan nan nan nan 214 217 223 229 231 231 232 221 210 108 70 88 102 109 119 120 115 112 112 106 102 92 84 84 84 83 81 71 64 65 72 77 84 86 92 97 106 110 125 132 137 144 133 144 148 130 114 116 131 119 112 119 145 160 154 81 67 70 77 71 62 51 38 18 17 27 37
256 246 237 230 224 223 229 nan nan nan nan nan nan nan nan nan nan nan nan 222 231 239 245 237 237 245 250 329 17 56 86 101 113 122 113 114 113 115 104 93 84 80 79 76 75 73 71 70 76 74 75 68 75 79 80 113 120 122 133 131 125 125 129 155 109 131 124 156 155 156 151 193 111 52 32 67 76 75 79 68 30 0 12 21 37
245 237 236 235 231 223 224 228 nan nan nan nan nan nan nan 206 209 nan nan 225 232 246 257 262 262 268 285 322 345 11 40 76 105 108 108 109 108 111 108 96 82 74 68 67 67 67 68 69 72 74 69 65 76 82 97 69 66 79 101 125 125 127 137 127 157 130 123 133 168 176 188 192 33 101 59 41 62 75 84 72 31 359 7 24 58
221 224 226 235 239 232 226 225 229 nan nan nan nan nan nan nan 213 210 211 217 233 239 255 272 277 286 306 322 336 350 358 16 70 90 87 96 104 102 107 101 88 76 64 59 59 55 55 57 63 62 61 48 56 64 93 130 2 19 73 110 117 119 135 149 141 138 156 141 185 231 196 215 156 107 87 63 66 77 77 86 358 3 27 46 84
220 215 213 223 237 240 239 233 231 230 nan nan nan nan nan nan nan 217 219 215 223 233 238 248 261 277 292 306 316 334 341 335 344 63 93 95 91 97 99 101 93 81 69 59 51 46 46 43 47 40 31 32 38 18 14 42 138 201 165 169 17 113 141 149 143 177 165 142 179 213 221 223 224 196 226 116 104 104 126 82 29 19 29 50 136
247 236 221 216 219 236 242 239 234 233 227 nan nan nan nan nan nan nan 219 226 231 235 246 nan 253 265 276 288 294 305 304 300 315 356 34 74 104 103 104 100 93 82 73 61 48 41 39 37 33 19 12 14 22 7 332 339 284 217 188 213 263 262 250 155 173 188 215 179 200 198 227 219 209 209 254 302 124 148 159 96 13 5 1 19 175
255 251 242 228 218 216 230 233 231 226 226 222 nan nan nan nan nan nan nan nan 233 237 245 256 nan 261 268 275 287 291 291 287 293 307 303 284 316 47 93 101 103 99 83 60 46 32 29 29 22 8 7 9 10 2 346 326 308 309 291 221 242 264 277 284 264 234 242 229 226 250 229 239 264 177 241 270 269 278 165 195 349 344 328 336 323
251 250 244 235 218 215 218 225 223 223 221 221 220 nan nan nan nan nan nan nan nan nan 246 256 254 nan 264 269 280 286 298 300 300 304 292 286 288 301 333 58 93 116 121 92 60 41 23 14 8 1 2 0 359 1 336 338 310 303 291 258 242 241 237 249 259 266 249 244 245 225 241 238 240 262 248 245 230 233 295 317 334 340 317 330 344
246 245 240 240 228 217 217 218 220 221 221 222 221 218 nan nan nan nan nan nan nan nan nan 246 256 261 nan 269 274 278 292 302 286 287 284 283 280 292 304 323 346 34 146 165 249 32 26 11 358 350 350 2 5 2 354 345 320 321 310 280 257 246 237 233 237 240 236 243 226 238 231 220 235 231 220 238 246 227 269 281 295 309 302 297 325
238 239 236 239 228 221 219 218 221 224 225 223 222 219 218 nan nan nan nan nan nan nan nan nan 252 268 275 278 276 270 269 264 291 339 320 282 278 276 280 291 295 289 282 253 245 283 356 358 358 13 8 5 1 4 8 11 6 345 330 306 295 267 248 238 233 237 238 240 245 246 232 226 225 252 253 254 259 257 248 267 279 277 281 296 302
229 228 222 235 234 228 223 221 222 226 226 226 224 221 219 219 219 nan nan nan nan nan nan nan nan 256 270 275 280 269 262 257 315 314 326 333 288 274 279 278 276 275 274 271 267 278 283 315 319 1 359 352 348 357 0 6 12 18 18 358 328 307 274 251 235 237 239 241 246 251 253 228 214 250 258 255 265 269 277 280 281 272 275 272 270
226 221 221 226 230 235 239 237 233 230 229 228 227 226 224 221 219 221 220 221 222 nan nan nan nan 246 252 263 271 271 263 281 308 309 319 327 310 276 267 269 270 270 268 271 266 267 277 282 282 280 288 306 314 320 339 357 7 13 17 13 4 354 330 291 257 237 238 237 240 248 251 249 227 245 249 255 263 270 273 276 276 274 273 277 289
216 218 223 230 242 332 333 310 277 252 241 234 229 228 228 226 223 223 224 224 225 226 226 nan nan 242 248 257 262 265 258 286 298 307 313 317 321 296 256 261 266 268 269 271 270 269 266 266 267 273 280 323 317 302 303 319 347 4 10 15 19 3 338 323 302 269 244 238 241 239 255 248 241 250 263 262 267 267 277 273 277 276 282 284 288
215 218 226 229 255 280 289 306 288 260 245 238 234 232 229 226 225 224 225 227 228 227 228 231 236 242 246 250 253 254 257 275 298 303 305 310 310 291 251 257 258 261 267 271 268 266 264 264 267 268 277 286 291 294 290 297 305 313 323 323 321 335 334 314 295 252 236 236 238 238 242 254 248 253 261 261 258 263 269 275 283 280 285 290 289
218 224 228 223 232 244 248 252 263 256 246 239 236 233 229 223 224 224 226 229 229 228 228 228 231 238 243 245 245 248 250 280 287 299 302 305 308 289 255 250 251 252 255 260 267 268 263 262 263 267 269 276 284 296 294 294 292 301 308 314 317 314 299 285 280 277 266 242 233 234 233 242 243 248 252 260 267 275 283 288 290 288 285 280 281
219 223 221 216 219 239 250 244 240 252 250 241 234 229 226 224 223 222 221 221 220 221 220 221 225 231 240 246 246 244 246 274 281 290 298 299 303 268 256 253 252 253 253 253 258 262 265 265 260 260 262 267 283 312 310 296 292 300 304 306 305 302 292 289 295 288 284 273 250 238 235 233 235 240 248 255 264 272 276 277 277 279 281 281 288
220 216 212 212 212 220 235 238 230 244 252 244 233 226 224 223 221 221 217 216 217 217 216 217 216 222 231 240 246 241 239 259 278 285 290 297 279 261 259 252 248 251 255 259 260 261 264 265 262 258 258 262 279 299 313 308 287 293 296 299 301 296 287 272 279 289 287 286 285 265 241 232 222 223 240 260 269 275 276 280 287 287 285 284 286
202 208 211 220 222 220 223 225 218 220 231 231 223 219 221 223 226 226 220 217 214 214 216 213 213 216 223 232 242 242 238 252 274 279 286 288 280 269 261 257 252 249 248 255 259 260 262 278 274 262 258 258 278 296 310 301 288 286 285 290 295 296 284 272 267 271 288 292 287 271 249 237 230 225 235 257 275 277 278 286 283 286 291 291 292
198 198 208 217 221 223 223 220 213 211 219 223 221 220 221 224 227 229 225 222 219 221 224 221 218 217 218 226 244 251 241 249 271 279 285 283 278 264 263 257 254 249 247 245 253 257 258 261 280 274 262 261 276 287 305 303 291 288 287 286 294 292 286 274 274 269 266 264 260 259 255 258 254 251 250 262 279 284 282 284 282 287 291 290 288
198 197 210 220 220 219 215 212 207 204 205 218 220 218 219 222 226 231 232 230 227 228 229 229 227 222 221 223 231 242 245 246 260 284 284 284 289 272 260 260 256 251 247 244 244 252 257 257 261 269 273 270 273 282 293 306 290 279 278 283 286 287 278 275 280 276 268 268 263 265 264 261 263 262 262 268 276 283 289 290 290 291 291 290 292
199 202 208 211 213 212 208 210 214 209 209 219 222 219 220 221 223 227 232 233 233 231 232 233 232 229 228 225 226 233 240 248 257 284 287 291 294 287 263 266 263 256 250 244 243 249 255 258 256 262 269 270 272 278 286 295 296 278 277 279 285 287 274 275 277 282 271 266 263 262 265 267 269 268 273 280 287 288 289 288 287 288 289 293 298
201 201 207 209 208 210 212 212 212 210 213 222 227 224 222 223 223 225 227 233 237 236 234 234 234 234 234 233 228 229 237 257 251 272 292 298 297 305 273 269 271 262 255 246 241 241 249 252 253 260 271 271 272 272 274 278 294 272 268 286 287 285 277 276 273 271 269 266 264 265 267 270 271 275 280 285 288 289 288 287 286 287 291 296 301
197 201 210 213 211 208 207 203 204 211 217 222 226 228 228 227 227 228 229 232 235 236 236 237 237 238 239 238 236 235 236 240 260 260 282 297 304 305 316 288 287 268 259 252 245 239 243 246 247 254 262 268 268 268 267 273 267 268 278 259 260 267 269 270 270 269 268 268 268 268 269 273 278 280 282 281 281 284 285 285 286 289 292 292 292
199 202 206 208 206 201 201 204 210 219 225 224 223 227 231 232 232 232 235 235 235 237 234 236 238 240 244 243 242 242 243 243 251 269 269 291 296 305 312 318 291 271 265 252 244 240 239 242 243 249 256 261 263 264 268 273 269 276 270 264 257 256 261 266 268 270 270 272 272 272 274 276 278 277 276 277 280 283 284 284 287 290 291 293 292
193 195 201 205 201 197 204 210 217 223 226 229 228 230 235 239 236 236 237 237 238 239 237 239 241 241 243 247 249 250 252 250 248 257 276 279 290 295 303 311 304 284 270 256 246 243 243 247 247 248 251 255 259 259 256 260 270 263 262 265 264 258 259 263 266 270 272 275 277 278 277 277 277 274 272 273 275 275 278 280 285 290 293 293 294
191 190 193 201 202 199 203 210 217 222 228 231 235 237 242 244 243 241 239 239 241 242 241 241 240 241 244 248 253 256 256 255 254 253 256 263 267 283 296 297 300 292 282 266 265 260 254 249 247 246 246 249 251 253 254 256 263 271 266 261 258 259 259 261 264 270 274 277 280 281 279 273 271 269 269 271 275 281 285 287 289 290 290 289 288
191 189 188 192 199 206 210 215 221 226 230 232 235 240 242 244 245 245 246 245 245 245 246 245 241 242 244 248 251 253 255 257 258 255 255 256 254 255 257 254 260 263 259 250 242 239 237 240 241 243 248 257 262 260 261 259 257 256 260 263 265 264 263 265 270 274 277 279 278 276 274 272 270 272 275 277 278 281 285 286 286 288 287 288 290
193 189 186 190 196 205 210 219 231 232 235 236 237 239 243 247 247 249 252 251 249 247 247 246 245 243 238 238 242 246 250 255 260 262 260 259 257 255 257 258 260 262 261 253 247 241 238 238 238 241 248 248 252 254 259 263 267 266 267 269 270 269 268 271 269 266 269 272 271 269 269 272 277 277 272 273 277 280 282 284 285 286 288 289 290
193 192 192 194 196 203 209 215 224 231 236 239 239 243 248 247 245 245 250 252 254 255 252 249 246 239 236 238 242 244 249 255 263 269 264 264 261 256 256 260 262 261 265 268 251 245 243 244 244 247 251 255 258 261 264 267 269 270 272 271 271 272 272 272 273 272 270 268 271 274 274 270 267 265 270 274 278 282 281 283 287 291 291 288 294
197 197 198 198 197 203 210 213 220 225 231 236 239 233 221 229 241 247 247 257 268 268 260 252 250 243 239 237 243 249 252 256 256 263 263 264 267 272 273 275 275 271 267 267 257 249 248 245 247 250 254 258 263 266 269 270 270 271 272 272 273 274 276 272 266 260 263 270 268 266 267 271 273 276 279 282 281 283 287 291 295 297 296 294 296
202 201 201 201 200 203 210 214 217 222 226 232 236 238 236 228 224 227 230 245 258 260 260 257 255 254 248 239 241 249 246 244 252 262 265 267 272 274 274 273 276 279 270 257 251 251 247 249 249 251 255 259 265 269 271 271 272 273 273 273 272 267 256 248 255 266 273 263 258 265 276 282 283 283 285 285 288 290 291 295 297 299 299 298 297
204 205 205 205 202 206 212 216 219 222 224 228 232 235 238 240 228 221 223 229 241 259 261 257 254 255 257 253 246 240 245 253 258 265 270 272 274 275 275 274 274 277 273 274 259 253 250 251 252 255 260 263 266 267 268 270 272 272 270 269 265 261 272 287 286 272 272 278 281 283 290 291 291 292 291 289 290 291 294 296 297 298 297 296 296
204 207 210 211 209 208 216 221 224 227 230 233 234 235 237 241 246 240 228 227 232 239 246 248 248 251 258 258 260 256 254 256 261 261 266 270 272 274 275 275 270 265 262 258 254 250 250 253 254 255 260 262 263 266 268 270 269 264 259 261 269 275 282 295 283 285 285 288 290 295 294 290 285 283 286 289 291 293 296 298 298 297 296 295 293
208 211 212 215 217 215 216 228 232 233 235 236 237 238 238 241 244 245 244 240 236 233 233 237 240 242 237 238 240 241 243 256 265 266 267 269 272 275 272 260 258 271 275 265 261 255 250 249 249 252 257 260 262 264 265 263 256 254 257 265 282 291 300 283 287 292 292 294 295 288 289 292 286 276 277 290 296 295 296 299 297 296 295 295 295
214 210 204 212 221 220 220 220 228 236 235 234 232 233 234 236 237 240 245 248 249 252 251 245 239 241 246 242 238 237 243 250 261 268 269 270 270 265 262 259 258 255 252 248 247 240 238 242 247 254 259 260 259 257 251 251 256 264 272 279 284 293 294 296 303 301 297 295 295 297 299 295 289 279 280 290 295 296 298 299 300 299 296 293 292
216 215 217 217 222 225 224 222 222 223 226 227 230 233 235 236 235 235 236 239 244 246 243 240 241 239 243 240 239 234 232 242 256 266 271 268 266 270 264 262 261 259 258 254 247 238 235 238 242 246 250 247 246 246 253 262 274 279 283 282 285 292 297 299 297 295 294 298 301 303 301 301 297 291 288 290 294 296 296 299 299 298 296 294 294
218 218 218 220 224 229 232 230 226 229 232 230 225 220 220 223 228 233 235 238 240 241 243 241 240 239 238 238 239 236 235 238 241 245 249 258 271 269 263 266 266 262 254 247 239 228 221 220 232 242 249 250 249 258 269 275 278 287 294 292 294 292 291 292 292 292 293 296 300 301 301 300 299 296 294 293 290 289 291 294 296 296 294 294 293
217 218 219 222 227 234 234 233 228 228 231 235 235 236 234 228 225 228 234 236 238 241 242 240 240 247 251 246 244 239 237 241 245 243 246 250 253 253 251 252 256 258 255 244 246 248 244 234 238 251 258 261 264 268 272 274 282 287 289 289 285 283 285 285 285 287 292 296 298 297 295 294 294 294 293 293 291 290 291 294 294 294 293 291 292
216 215 214 219 233 238 241 245 247 245 235 228 230 237 241 243 243 241 239 237 237 238 241 244 246 250 253 253 248 244 242 237 240 243 245 247 250 250 247 250 252 252 255 251 256 260 253 243 243 249 259 267 270 270 271 270 272 274 276 276 277 277 280 281 284 287 291 294 293 290 289 289 291 291 291 289 289 290 292 293 293 293 293 292 293
216 218 219 221 234 243 245 244 250 255 252 243 233 231 230 233 237 242 243 243 240 239 240 242 243 241 247 255 255 249 240 236 235 237 241 244 245 242 241 243 246 252 261 264 253 250 248 246 246 249 256 262 266 266 265 267 269 270 270 271 274 278 282 286 288 288 288 288 289 290 290 290 289 288 288 289 291 293 294 293 293 292 292 291 290
218 218 220 224 231 242 249 248 249 253 255 260 259 252 243 238 237 236 238 240 239 238 238 238 237 237 238 244 253 250 243 236 234 233 234 238 240 239 238 239 242 246 251 256 257 256 253 250 247 248 248 250 255 260 263 264 265 267 269 272 275 279 283 285 285 285 285 287 288 289 288 287 289 290 289 287 287 289 289 288 288 288 288 287 288
220 222 224 227 230 236 242 246 246 248 246 248 250 249 247 246 244 242 240 239 238 238 238 237 236 236 237 246 250 251 243 237 233 232 232 234 236 237 238 238 239 243 246 250 254 259 258 255 251 249 248 248 248 249 254 258 262 266 269 271 273 275 276 278 280 284 285 284 284 285 286 286 286 285 285 286 285 285 284 283 284 284 284 284 286
223 224 226 230 234 237 238 239 238 243 248 249 247 242 243 245 245 245 243 242 242 242 242 243 242 242 240 241 246 246 243 240 236 232 230 233 235 236 238 238 240 242 245 246 249 254 257 258 257 254 253 253 253 254 256 258 260 265 269 272 274 276 277 278 277 278 279 282 283 284 284 284 283 282 282 283 283 283 283 283 283 283 284 285 286
227 227 226 229 233 237 238 239 241 243 243 244 243 241 242 245 248 249 247 246 245 244 244 244 244 243 244 245 244 241 241 242 238 231 229 232 233 235 237 238 240 242 244 245 247 250 254 255 256 257 256 257 257 258 259 260 261 263 265 270 274 274 275 275 276 277 279 281 282 281 281 281 280 281 280 nan nan 281 281 281 282 283 284 285 nan
229 228 227 228 230 235 239 241 242 245 248 247 244 242 243 245 248 250 249 246 243 240 239 237 235 235 239 243 244 243 242 241 236 230 229 231 232 233 236 238 240 243 245 246 248 251 253 255 256 257 258 258 258 259 260 261 263 265 267 268 270 271 272 273 274 274 275 277 278 278 278 278 nan nan nan nan 279 280 280 281 282 nan 283 283 285
233 232 232 231 231 232 236 239 241 244 247 249 247 243 242 245 250 254 251 246 241 240 239 236 234 234 238 242 242 241 239 236 232 229 229 230 231 233 236 239 242 244 245 247 248 250 252 254 255 256 257 258 259 260 261 261 263 265 267 269 270 270 270 272 274 274 275 275 276 278 nan nan nan nan 279 280 280 280 281 281 281 nan nan nan nan
238 nan nan 237 236 235 234 236 241 244 245 246 246 245 243 246 253 255 249 246 243 239 237 235 235 236 239 241 242 240 235 230 229 232 234 234 234 236 238 240 243 246 247 248 250 251 252 253 254 256 258 258 259 259 259 261 262 263 264 266 267 267 269 271 272 272 274 275 nan nan nan nan nan 279 278 279 280 280 280 281 282 nan nan nan nan
nan nan nan nan 236 236 233 232 236 241 244 245 246 246 245 250 257 257 250 245 242 239 236 235 235 236 237 238 239 238 235 232 232 234 234 234 235 237 240 242 244 247 248 249 250 251 252 254 255 256 258 258 258 259 259 259 259 260 259 261 263 265 267 268 269 269 272 275 277 278 279 280 280 280 280 280 281 282 282 283 285 nan nan nan nan
nan nan nan nan nan 238 238 233 233 238 241 244 246 246 244 246 252 258 254 246 242 240 238 238 237 237 238 238 238 236 233 233 234 235 235 237 238 239 241 244 246 247 248 249 250 251 253 253 254 256 257 258 259 261 260 258 258 260 259 259 262 263 264 263 265 267 272 277 280 281 282 282 nan nan nan nan nan nan nan nan nan nan nan nan nan
nan nan nan nan nan nan nan 240 236 237 242 242 242 242 243 247 252 256 257 253 248 243 240 238 237 236 236 235 233 230 229 231 233 235 236 237 237 238 241 243 245 246 249 250 251 253 254 256 257 258 258 259 260 261 260 260 261 259 254 255 257 259 261 260 261 266 274 281 283 284 285 nan nan nan nan nan nan nan nan nan nan nan nan nan nan
nan nan nan nan nan nan nan nan nan 232 237 241 240 239 242 246 250 252 252 252 255 255 249 242 239 237 232 227 224 225 228 232 234 236 236 235 236 238 240 242 244 246 248 249 251 252 254 255 257 259 260 262 263 262 259 258 260 258 253 252 257 261 262 262 nan 267 nan nan nan nan nan nan nan nan nan nan nan nan nan nan nan nan nan nan nan